sat.trackr.live / text

‹ back to catalog

STARLINK-31042

NORAD 58739 · 2024-005M

PAYLOAD ACTIVE UNKNOWN

§ Identity

Operator
Country
US
Launch date
2024-01-07
Launch site
AFETR
Launch vehicle
Mass (kg)
RCS (m²)

Purposes: comms

External: N2YO · Heavens-Above · Gunter

§ Orbital elements

Epoch: 2026-05-25T01:26:20.366880Z

Period
94.27 min
Inclination
43.0035°
Eccentricity
0.0001101
Mean motion
15.27572437 rev/d
Perigee alt
482.3 km
Apogee alt
483.8 km
Semi-major
6,861.2 km
B*
2.8077e-5
RAAN
148.4326°
Arg perigee
266.3014°
Mean anomaly
93.7712°
Rev number
13,212

§ Raw data

STARLINK-310421 58739U 24005M   26145.05995795  .00000510  00000+0  28077-4 0  99932 58739  43.0035 148.4326 0001101 266.3014  93.7712 15.27572437132123

JSON: /api/v1/satellites/58739 · /tle

For live sub-satellite position, see the globe view (requires WebGL).

§ Visibility from observer

Set your observer location to see the next 7 days of passes ≥ 10°. The values pass through the URL so the page stays shareable.

No JS? Fill the form by hand. The geolocation button needs JavaScript.